World > North America > United States > Idaho

Stites, Idaho Regional Weather

Lat: 46.09N, Lon: 115.98W
Wx Zone: IDZ007
Feedback

Stites, ID Regional Weather

Expires:202002291400;;274466
ASUS45 KBOI 291310
RWRID 

IDAHO REGIONAL WEATHER ROUNDUP
NATIONAL WEATHER SERVICE BOISE ID
600 AM MST SAT FEB 29 2020

NOTE: "FAIR" INDICATES FEW OR NO CLOUDS BELOW 12000 FEET
WITH NO SIGNIFICANT WEATHER AND/OR OBSTRUCTIONS TO VISIBILITY


IDZ002-004-006-007-026-291400-
NORTHERN IDAHO

  
CITY           SKY/WX    TMP DP  RH WIND       PRES   REMARKS
LEWISTON       MOCLDY    43  21  41 CALM      29.92S                  
LOWELL           N/A     37  35  92 CALM      29.95R                  
COEUR D'ALENE  CLEAR     36  24  62 SW5       29.85S WCI  32          
MULLAN PASS    MOCLDY    24  16  71 SW10G21   29.74R WCI  14          
$$
  

SKY/WX - Weather  TMP - Temperature  DP - Dew Point  RH - Relative Humidity
WIND - Wind Direction/Speed PRES - Barometric Pressure VSB - Visibility
WCI - Wind Chill Index E13G22 Wind - East Wind 13 mph/Gusts of 22 mph
Stites Weather Map
What is UTC time?